7 * 24
多渠道服务支持
STARLINK-36998(NORAD编号68286)是美国SpaceX公司星链(Starlink)星座的一员,属于低轨宽带通信卫星。星链项目旨在通过近地轨道卫星组网,为全球尤其是偏远地区提供高速低延迟互联网接入服务,目前已完成大规模部署并持续扩展。 该卫星运行于近地轨道,是SpaceX万颗星链组网计划的组成部分,配备相控阵天线等技术,支持多用户通信与高效频谱利用。2026年SpaceX启动降轨计划,将包括STARLINK-36998在内的数千颗星链卫星轨道高度从550公里降至480公里,以降低碰撞风险,减少太空碎片隐患,提升太空运行安全性。
美国
(US)
| 数据来源 | 国际轨道数据 |
| 星历时间: | 2026-06-10T07:20:21+0800 12小时前 查看轨道信息 |
| 半长轴: | 6840.818km |
| 偏心率: | 0.0001133 |
| 轨道倾角: | 53.159° |
| 近地点辐角 | 82.383° |
| 升交点赤经 | 248.911° |
| 平近点角 | 277.730° |
| 近地点: | 461.905km |
| 远地点: | 463.457km |
| 周期: | 93.847分钟 |
| 每日圈数: | 15.344077 |